Regional Weather Roundup
Issued by NWS

Home | Current Version | Previous Version | Graphics & Text | Print | Product List | Glossary Off
Versions: 1 2 3 4 5 6 7 8 9 10 11 12 13 14 15 16 17 18 19 20 21 22 23 24 25 26 27 28 29 30 31 32 33 34 35 36 37 38 39 40 41 42 43 44 45 46 47 48 49 50

000
ASUS43 KDTX 010101
RWRMI
MICHIGAN HOURLY REGIONAL WEATHER ROUNDUP
NATIONAL WEATHER SERVICE DETROIT/PONTIAC MI
900 PM EDT MON AUG 31 2015

NOTE: "FAIR" INDICATES FEW OR NO CLOUDS BELOW 12,000 FEET WITH NO
SIGNIFICANT WEATHER AND/OR OBSTRUCTION TO VISIBILITY.

MIZ047>049-052>055-059>063-066>070-074>076-081>083-010200-
SOUTHEAST LOWER MICHIGAN

CITY           SKY/WX    TMP DP  RH WIND       PRES   REMARKS
ADRIAN         CLEAR     72  66  81 CALM      30.07R
ALMA           CLEAR     68  67  97 CALM      30.05S FOG
ANN ARBOR      CLEAR     69  67  93 CALM      30.06R FOG
BAD AXE        CLEAR     67  64  90 CALM      30.05R
CARO             N/A     64  64  97 CALM      30.04S FOG
DETROIT CITY   CLEAR     74  63  68 SE3       30.05R
DETROIT        CLEAR     78  66  66 CALM      30.06R
FLINT          CLEAR     71  66  84 CALM      30.05S
GROSSE ILE     CLEAR     75  70  83 CALM      30.04R
HILLSDALE      CLEAR     71  70  95 CALM      30.08R
HOWELL         CLEAR     71  66  85 CALM      30.06R FOG

CITY           SKY/WX    TMP DP  RH WIND       PRES   REMARKS
JACKSON        CLEAR     72  68  87 CALM      30.07R
LAMBERTVILLE   CLEAR     72  68  87 CALM      30.06R
LANSING        CLEAR     72  67  84 CALM      30.06R
LAPEER         FAIR      67  66  99 CALM      30.06R
MASON          CLEAR     70  66  87 CALM      30.06S FOG
MONROE         CLEAR     72  68  88 CALM      30.04R
MT. CLEMENS    CLEAR     72  64  78 SW2       30.03S
PONTIAC        CLEAR     73  66  78 CALM      30.05S
PORT HOPE        N/A     68  66  93 S3        30.02S
PORT HURON     FOG       64  64 100 CALM      30.05R VSB 1
TRI CITIES     CLEAR     73  67  81 SW3       30.05S
MIDLAND        FAIR      68  66  94 CALM      30.03S
TROY           CLEAR     78  64  61 CALM      30.07R
SAGINAW HB     CLEAR     70  66  88 CALM      30.04S
$$
MIZ043>046-050>051-056>058-064>065-071>073-077>080-010200-
SOUTHWEST LOWER MICHIGAN

CITY           SKY/WX    TMP DP  RH WIND       PRES   REMARKS
BATTLE CREEK   CLEAR     75  68  78 CALM      30.06S
BENTON HARBOR  CLEAR     70  67  90 CALM      30.03S
BIG RAPIDS     CLEAR     68  66  91 CALM      30.04S
COLDWATER      CLEAR     71  69  96 CALM      30.07R FOG
FREMONT        FAIR      67  67 100 CALM      30.04R
HOLLAND        CLEAR     69  66  90 CALM      30.05R
GRAND RAPIDS   CLEAR     74  67  78 W5        30.05R
IONIA          FAIR      70  68  95 CALM      30.04S
KALAMAZOO      CLEAR     72  66  81 CALM      30.05S
LUDINGTON        N/A     67  64  91 CALM      30.04S FOG
MARSHALL       CLEAR     71  68  91 CALM      30.06R
MOUNT PLEASANT CLEAR     70  66  88 CALM      30.04R
MUSKEGON       CLOUDY    69  64  84 CALM      30.04S
SOUTH HAVEN    CLEAR     69  66  92 CALM      30.04R
$$
MIZ016>042-010200-
NORTHERN LOWER MICHIGAN

CITY           SKY/WX    TMP DP  RH WIND       PRES   REMARKS
ALPENA         CLEAR     66  63  90 CALM      30.02R
BEAVER ISLAND  CLEAR     67  65  91 S5        30.00S
BELLAIRE       CLEAR     72  67  85 CALM      30.01R
CADILLAC       CLEAR     68  66  92 SW3       30.05S
CHARLEVOIX     CLEAR     68  66  94 SW3       30.04R
FRANKFORT      CLEAR     70  65  86 S3        30.02S
GAYLORD        CLEAR     71  65  81 SW5       30.03S
GRAYLING       CLEAR     68  65  90 CALM      30.05R
HARBOR SPRINGS CLEAR     67  65  93 CALM      30.01R
HOUGHTON LAKE  CLEAR     72  66  81 SW6       30.05R
MANISTEE       CLEAR     68  63  83 CALM      30.03S
OSCODA         CLEAR     71  65  84 SW7       30.01S
PELLSTON       CLEAR     67  65  93 CALM      30.01R
ROGERS CITY    CLEAR     66  64  91 SE5       30.02S FOG
TRAVERSE CITY  CLEAR     74  67  78 SW3       30.01R
$$
MIZ007>008-015-010200-
EASTERN UPPER MICHIGAN

CITY           SKY/WX    TMP DP  RH WIND       PRES   REMARKS
KINROSS        CLEAR     66  64  94 S6        30.00R
MACKINAC ISLAN CLEAR     66  64  93 SE6       30.01R
NEWBERRY       CLOUDY    66  65  94 S13G20    29.97S
S. S. MARIE    CLEAR     69  63  81 S7        29.99R
$$
MIZ004>006-011>014-085-010200-
CENTRAL UPPER MICHIGAN

CITY           SKY/WX    TMP DP  RH WIND       PRES   REMARKS
MANISTIQUE     CLOUDY    65  64  96 S10G16    29.97S FOG
ESCANABA       CLEAR     68  63  83 S5        29.95R
MENOMINEE      CLEAR     72  64  78 SW7       29.96S
SAWYER-GWINN   CLEAR     75  68  78 S8        29.95R
$$
MIZ001>003-009>011-084-010200-
WESTERN UPPER MICHIGAN

CITY           SKY/WX    TMP DP  RH WIND       PRES   REMARKS
IRON MOUNTAIN  CLEAR     72  63  73 S6        29.96R
HOUGHTON       CLEAR     76  62  62 SW6       29.88R
IRONWOOD       CLEAR     73  66  78 SW9G20    29.88S
$$

ABBREVIATIONS USED IN REMARKS
   TC - TEMPERATURE IN CELSIUS
  WCI - WIND CHILL INDEX
   HX - HEAT INDEX
  VSB - VISIBILITY



USA.gov is the U.S. government's official web portal to all federal, state and local government web resources and services.